Location: Saint-Palais-sur-Mer
(45.6429°N, 1.0859°W)
Time: 23:50:13
(UTC+01:00)

Vanguard 1 - Pass Details

Date: 15 February 2026
Orbit: 653 x 3818 km, 34.2° (Epoch: 12 March)

Event Time Altitude Azimuth Distance (km) Brightness Sun altitude
Rises 19:58:15 0° 263° (W) 5,956 15.9 -15.8°
Reaches altitude 10° 20:01:38 10° 260° (W) 5,292 15.1 -16.4°
Maximum altitude 20:18:25 58° 187° (S) 3,902 13.0 -19.3°
Enters shadow 20:36:09 20° 121° (ESE) 6,038 13.5 -22.4°
